Weather History for KCTB - March, 2013

Change the Weather History Date:

Tuesday, March 12, 2013

  Actual Average Record
Temperature  
Mean Temperature 31 °F 30 °F  
Max Temperature 44 °F 41 °F 67 °F (1910)
Min Temperature 18 °F 19 °F -20 °F (1950)
Degree Days  
Heating Degree Days 34 35  
Month to date heating degree days 437 440  
Since 1 July heating degree days 6176 6500  
Cooling Degree Days 0 0  
Month to date cooling degree days 0 0  
Year to date cooling degree days 0 0  
Moisture  
Dew Point 25 °F    
Average Humidity 77    
Maximum Humidity 92    
Minimum Humidity 62    
Precipitation  
Precipitation 0.00 in 0.02 in 0.27 in (1983)
Month to date precipitation 0.02 0.17  
Year to date precipitation 0.75 0.58  
Snow  
Snow 0.00 in - - ()
Snow Depth 0.00 in    
Sea Level Pressure  
Sea Level Pressure 30.11 in    
Wind  
Wind Speed 15 mph (South)    
Max Wind Speed 33 mph    
Max Gust Speed 40 mph    
Visibility 10 miles    
Events      
T = Trace of Precipitation, MM = Missing Value Source: NWS Daily Summary

Daily Weather History Graph

Daily Weather History Graph

Search for Another Location

Airport or City:

Trip Planner

Search our weather history database for the weather conditions in past years. The results will help you decide how hot, cold, wet, or windy it might be!

Date:

Astronomy

Mar. 12, 2013 Rise Set
Actual Time 7:48 AM MDT 7:30 PM MDT
Civil Twilight 7:17 AM MDT 8:02 PM MDT
Nautical Twilight 6:40 AM MDT 8:38 PM MDT
Astronomical Twilight 6:03 AM MDT 9:15 PM MDT
Moon 7:49 AM MDT (3/12) 9:00 PM MDT (3/12)
Length of Visible Light 12h 45m
Length of Day
11h 42m
New Moon, 1% of the Moon is Illuminated
Mar 12
New Moon
Mar 19
First Quarter
Mar 27
Full
Apr 2
Last Quarter
Apr 10
New

Hourly Weather History & Observations

Time (MDT) Temp. Windchill Dew Point Humidity Pressure Visibility Wind Dir Wind Speed Gust Speed Precip Events Conditions
12:56 AM 19.0 °F 11.1 °F 17.1 °F 92% 30.35 in 10.0 mi SSE 5.8 mph - N/A   Clear
1:56 AM 19.0 °F 10.0 °F 16.0 °F 88% 30.33 in 10.0 mi South 6.9 mph - N/A   Clear
2:56 AM 19.9 °F 11.1 °F 16.0 °F 85% 30.32 in 10.0 mi South 6.9 mph - N/A   Unknown
3:56 AM 18.0 °F 9.8 °F 16.0 °F 92% 30.29 in 10.0 mi SSE 5.8 mph - N/A   Clear
4:56 AM 19.9 °F 13.4 °F 16.0 °F 85% 30.26 in 10.0 mi SSE 4.6 mph - N/A   Mostly Cloudy
5:56 AM 21.0 °F 13.4 °F 18.0 °F 88% 30.24 in 10.0 mi SE 5.8 mph - N/A   Overcast
6:56 AM 21.9 °F 11.7 °F 18.0 °F 85% 30.23 in 10.0 mi SE 9.2 mph - N/A   Overcast
7:56 AM 23.0 °F 15.8 °F 19.0 °F 85% 30.22 in 10.0 mi SE 5.8 mph - N/A   Overcast
8:56 AM 25.0 °F 17.1 °F 19.9 °F 81% 30.20 in 10.0 mi ESE 6.9 mph - N/A   Overcast
9:56 AM 25.0 °F 17.1 °F 19.9 °F 81% 30.19 in 10.0 mi SE 6.9 mph - N/A   Overcast
10:56 AM 27.0 °F - 21.9 °F 81% 30.16 in 10.0 mi North - - N/A   Unknown
11:56 AM 28.9 °F 19.2 °F 21.9 °F 75% 30.12 in 10.0 mi SSE 11.5 mph - N/A   Clear
12:56 PM 30.9 °F 22.2 °F 24.1 °F 76% 30.10 in 10.0 mi SSE 10.4 mph - N/A   Partly Cloudy
1:56 PM 32.0 °F 22.5 °F 25.0 °F 75% 30.06 in 10.0 mi SSE 12.7 mph - N/A   Unknown
2:56 PM 35.1 °F 26.4 °F 27.0 °F 72% 30.01 in 10.0 mi SE 12.7 mph - N/A   Overcast
3:56 PM 37.0 °F 29.8 °F 28.0 °F 70% 30.01 in 10.0 mi SSE 10.4 mph - N/A   Overcast
4:48 PM 42.8 °F 34.3 °F 33.8 °F 70% 29.89 in 10.0 mi WSW 19.6 mph 27.6 mph N/A   Mostly Cloudy
4:56 PM 43.0 °F 33.8 °F 33.1 °F 68% 29.97 in 10.0 mi WSW 23.0 mph 29.9 mph N/A   Mostly Cloudy
5:56 PM 44.1 °F 35.2 °F 33.1 °F 65% 29.97 in 10.0 mi WSW 23.0 mph - N/A   Partly Cloudy
6:56 PM 44.1 °F 35.2 °F 32.0 °F 63% 29.96 in 10.0 mi WSW 23.0 mph 34.5 mph N/A   Clear
7:56 PM 42.1 °F 33.9 °F 32.0 °F 67% 29.97 in 10.0 mi WSW 17.3 mph - N/A   Clear
8:56 PM 42.1 °F 31.7 °F 32.0 °F 67% 29.96 in 10.0 mi WSW 27.6 mph 33.4 mph N/A   Clear
9:56 PM 41.0 °F 30.9 °F 33.1 °F 73% 29.97 in 10.0 mi WSW 24.2 mph 32.2 mph N/A   Clear
10:56 PM 42.1 °F 31.5 °F 33.1 °F 70% 29.96 in 10.0 mi West 28.8 mph 34.5 mph N/A   Clear
11:56 PM 43.0 °F 32.7 °F 33.1 °F 68% 29.96 in 10.0 mi West 28.8 mph 40.3 mph N/A   Clear